Regional Weather Roundup
Issued by NWS State College, PA

Home | Current Version | Previous Version | Text Only | Print | Product List | Glossary On
Versions: 1 2 3 4 5 6 7 8 9 10 11 12 13 14 15 16 17 18 19 20 21 22 23 24 25 26 27 28 29 30 31 32 33 34 35 36 37 38 39 40 41 42 43 44 45 46 47 48 49 50
000
ASUS41 KCTP 251910
RWRCTP

REGIONAL WEATHER ROUNDUP
NATIONAL WEATHER SERVICE STATE COLLEGE PA
300 PM EDT SUN SEP 25 2016

Note: "fair" indicates few or no clouds below 12,000 feet with no
significant weather and/or obstructions to visibility.

* = STATION THAT DOES NOT REPORT PRECIPITATION /E.G. RAIN...SNOW...ETC/
    THUNDER OR FOG.

PAZ002>004-007>009-013>016-020>023-029>032-252000-
WESTERN PENNSYLVANIA

CITY           SKY/WX    TMP DP  RH WIND       PRES   REMARKS
ERIE           SUNNY     67  49  52 NE13      30.17F
MEADVILLE      SUNNY     67  39  35 CALM      30.17F
FRANKLIN*        N/A     66  45  45 E3        30.18F
NEW CASTLE     FAIR      72  42  34 NE7       30.15F
BEAVER COUNTY  NOT AVBL
BUTLER*        SUNNY     70  43  37 E5        30.18S
PITTSBURGH INT PTSUNNY   74  43  32 VRB3      30.13F
PITTSBURGH     SUNNY     73  42  32 CALM      30.13F
INDIANA*       SUNNY     70  45  40 VRB5      30.17F
LATROBE        SUNNY     72  46  40 CALM      30.15F
WASHINGTON CO* SUNNY     73  46  38 CALM      30.14F
$$

PAZ004>006-010>012-017>019-024>028-033>037-041-042-045-046-049>053-252000-
CENTRAL PENNSYLVANIA

CITY           SKY/WX    TMP DP  RH WIND       PRES   REMARKS
BRADFORD       SUNNY     65  40  39 NE5       30.18F
DUBOIS         SUNNY     68  40  35 VRB7      30.16F
CLEARFIELD     SUNNY     68  40  35 CALM      30.18F
JOHNSTOWN      SUNNY     68  42  38 CALM      30.17F
ALTOONA        SUNNY     69  41  36 VRB3      30.17F
STATE COLLEGE  SUNNY     66  45  45 CALM      30.18F
WILLIAMSPORT   SUNNY     68  44  42 VRB5      30.15F
SELINSGROVE    SUNNY     73  36  25 NW6       30.17F
FT INDIANTOWN  SUNNY     70  43  37 S3        30.16F
CAPITAL CITY   SUNNY     70  39  32 VRB5      30.16F
HARRISBURG     MOSUNNY   71  45  39 W3        30.16F
YORK           SUNNY     70  45  40 CALM      30.16F
$$

PAZ038>040-043-044-047-048-054-055-060>062-067>071-252000-
EASTERN PENNSYLVANIA

CITY           SKY/WX    TMP DP  RH WIND       PRES   REMARKS
SCRANTON       SUNNY     67  33  28 NE6       30.17F
MOUNT POCONO   SUNNY     61  34  36 W8        30.18F
ALLENTOWN      SUNNY     72  41  32 VRB7      30.15F
QUAKERTOWN*    CLEAR     68  41  37 W6        30.17F
READING        SUNNY     70  43  37 CALM      30.15F
LANCASTER      SUNNY     72  42  34 VRB6      30.16F
COATESVILLE    CLEAR     68  39  34 CALM      30.18F
POTTSTOWN      SUNNY     70  41  34 NW9       30.17F
BLUE BELL      SUNNY     70  41  35 NW3       30.15F
DOYLESTOWN     SUNNY     71  43  36 W5        30.15F
WILLOW GROVE   NOT AVBL
NORTH PHILA    SUNNY     73  41  31 N9        30.17F
PHILADELPHIA   MOSUNNY   72  41  32 N5        30.15F
$$




USA.gov is the U.S. government's official web portal to all federal, state and local government web resources and services.